EW8956 Weather Reports


Display with metric or nautical units.
time (UTC)temp
F
wind
direction
speed
MPH
gust
MPH
rain 1hr
in
rain 24hr
in
rain mn
in
humidity
%
barometer
mb
20260903064552 75 0 0.0 0.0 0.00 0.00 0.00 87 1018.3
20260903063102 76 0 0.0 0.0 0.00 0.00 0.00 87 1018.2
20260903061558 76 0 0.0 0.0 0.00 0.00 0.00 87 1018.3
20260903060131 76 0 0.0 0.0 0.00 0.00 0.00 85 1018.3
20260903054553 76 0 0.0 0.0 0.00 0.00 0.00 84 1018.4
20260903053052 76 0 0.0 0.0 0.00 0.00 0.00 83 1018.3
20260903051601 77 0 0.0 0.0 0.00 0.00 0.00 83 1018.4
20260903050053 77 0 0.0 0.0 0.00 0.00 0.00 84 1018.4
20260903044601 77 0 0.0 0.0 0.00 0.00 0.00 83 1018.3
20260903043053 77 0 0.0 0.0 0.00 0.00 0.00 81 1018.2
20260903041553 78 0 0.0 0.0 0.00 0.00 0.00 80 1018.3
20260903040108 78 0 0.0 0.0 0.00 0.00 0.00 80 1018.3
20260903034557 78 0 0.0 0.0 0.00 0.00 0.00 80 1018.4
20260903033054 79 0 0.0 0.0 0.00 0.00 0.00 81 1018.6
20260903031552 79 0 0.0 0.0 0.00 0.00 0.00 79 1018.6
20260903030103 79 0 0.0 0.0 0.00 0.00 0.00 79 1018.8
20260903024600 80 0 0.0 0.0 0.00 0.00 0.00 78 1018.8
20260903023102 80 0 0.0 0.0 0.00 0.00 0.00 77 1018.8
20260903021600 81 0 0.0 0.0 0.00 0.00 0.00 77 1019.2
20260903020048 81 0 0.0 0.0 0.00 0.00 0.00 76 1019.1
20260903014601 82 0 0.0 0.0 0.00 0.00 0.00 75 1019.1
20260903013055 83 0 0.0 0.0 0.00 0.00 0.00 74 1019.1
20260903011552 83 0 0.0 0.0 0.00 0.00 0.00 73 1019.0
20260903010052 84 0 0.0 0.0 0.00 0.00 0.00 71 1018.8
20260903004600 85 0 0.0 0.0 0.00 0.00 0.00 66 1018.7
20260903003055 86 0 0.0 0.0 0.00 0.00 0.00 63 1018.5
20260903001554 87 0 0.0 0.0 0.00 0.00 0.00 61 1018.3
20260903000053 88 0 0.0 0.0 0.00 0.00 0.00 59 1018.3
20260902234622 89 0 0.0 1.0 0.00 0.00 0.00 59 1018.2
20260902233056 89 0 0.0 0.0 0.00 0.00 0.00 57 1018.3
20260902231606 90 0 0.0 1.0 0.00 0.00 0.00 55 1018.1
20260902224602 91 0 0.0 2.0 0.00 0.00 0.00 51 1018.1
20260902223053 92 0 0.0 3.0 0.00 0.00 0.00 51 1017.9
20260902221602 92 0 0.0 4.0 0.00 0.00 0.00 49 1018.0
20260902220107 93 0 0.0 3.0 0.00 0.00 0.00 49 1017.9
20260902214608 93 94 0.0 4.0 0.00 0.00 0.00 49 1018.1
20260902213051 93 0 0.0 1.0 0.00 0.00 0.00 50 1018.2
20260902211556 93 0 0.0 4.0 0.00 0.00 0.00 49 1018.3
20260902210055 94 0 1.0 6.0 0.00 0.00 0.00 47 1018.2
20260902204635 96 0 0.0 2.0 0.00 0.00 0.00 45 1018.3
20260902203050 96 0 0.0 3.0 0.00 0.00 0.00 45 1018.3
20260902201558 95 0 0.0 7.0 0.00 0.00 0.00 45 1018.3
20260902200055 95 0 1.0 4.0 0.00 0.00 0.00 45 1018.4
20260902194554 96 117 0.0 3.0 0.00 0.00 0.00 45 1018.7
20260902193101 95 114 0.0 3.0 0.00 0.00 0.00 44 1018.8
20260902191556 97 0 0.0 1.0 0.00 0.00 0.00 44 1019.0
20260902190054 96 0 0.0 4.0 0.00 0.00 0.00 45 1019.2
20260902184554 95 154 0.0 5.0 0.00 0.00 0.00 46 1019.2
20260902183052 94 0 0.0 5.0 0.00 0.00 0.00 47 1019.5
20260902181601 95 0 0.0 1.0 0.00 0.00 0.00 46 1019.5
20260902174558 94 0 0.0 0.0 0.00 0.00 0.00 48 1019.6
20260902173056 94 0 0.0 2.0 0.00 0.00 0.00 48 1019.8
20260902171603 93 0 0.0 4.0 0.00 0.00 0.00 50 1020.0
20260902170050 92 0 0.0 0.0 0.00 0.00 0.00 51 1020.2
20260902164555 92 0 0.0 0.0 0.00 0.00 0.00 52 1020.4
20260902163054 91 0 0.0 4.0 0.00 0.00 0.00 52 1020.4
20260902161559 91 103 0.0 4.0 0.00 0.00 0.00 51 1020.6
20260902160051 91 0 0.0 2.0 0.00 0.00 0.00 53 1020.7
20260902154555 91 158 0.0 3.0 0.00 0.00 0.00 53 1020.6
20260902153052 90 0 0.0 0.0 0.00 0.00 0.00 55 1020.7
20260902151555 90 0 0.0 2.0 0.00 0.00 0.00 56 1020.6
20260902150051 90 0 0.0 2.0 0.00 0.00 0.00 55 1020.7
20260902144549 89 0 0.0 0.0 0.00 0.00 0.00 60 1020.6
20260902143058 88 0 0.0 0.0 0.00 0.00 0.00 61 1020.6
20260902141552 87 0 0.0 0.0 0.00 0.00 0.00 63 1020.4
20260902140053 86 0 0.0 0.0 0.00 0.00 0.00 66 1020.4
20260902134551 85 0 0.0 0.0 0.00 0.00 0.00 65 1020.5
20260902133049 84 0 0.0 0.0 0.00 0.00 0.00 67 1020.4
20260902131555 82 0 0.0 0.0 0.00 0.00 0.00 71 1020.5
20260902130054 81 0 0.0 0.0 0.00 0.00 0.00 76 1020.5
20260902124553 79 0 0.0 0.0 0.00 0.00 0.00 79 1020.6
20260902123047 77 0 0.0 0.0 0.00 0.00 0.00 83 1020.5
20260902121607 76 0 0.0 0.0 0.00 0.00 0.00 86 1020.6
20260902114609 73 0 0.0 0.0 0.00 0.00 0.00 89 1020.3
20260902113101 72 0 0.0 0.0 0.00 0.00 0.00 90 1020.1
20260902111556 72 0 0.0 0.0 0.00 0.00 0.00 89 1020.0
20260902110058 72 0 0.0 0.0 0.00 0.00 0.00 90 1019.8
20260902104550 72 0 0.0 0.0 0.00 0.00 0.00 90 1019.8
20260902103102 72 0 0.0 0.0 0.00 0.00 0.00 90 1019.7
20260902101549 72 0 0.0 0.0 0.00 0.00 0.00 90 1019.8
20260902100051 72 0 0.0 0.0 0.00 0.00 0.00 90 1019.6
20260902094551 73 0 0.0 0.0 0.00 0.00 0.00 90 1019.7
20260902093103 73 0 0.0 0.0 0.00 0.00 0.00 89 1019.7
20260902091555 73 0 0.0 0.0 0.00 0.00 0.00 88 1019.6
20260902084553 73 0 0.0 0.0 0.00 0.00 0.00 88 1019.5
20260902083054 73 0 0.0 0.0 0.00 0.00 0.00 87 1019.4
20260902081553 74 0 0.0 0.0 0.00 0.00 0.00 87 1019.3
20260902080052 74 0 0.0 0.0 0.00 0.00 0.00 86 1019.3
20260902074601 74 0 0.0 0.0 0.00 0.00 0.00 86 1019.3
20260902073058 74 0 0.0 0.0 0.00 0.00 0.00 87 1019.3
20260902071556 74 0 0.0 0.0 0.00 0.00 0.00 87 1019.3
20260902070054 74 0 0.0 0.0 0.00 0.00 0.00 87 1019.2